[[{"header":{"parameterUnit":"m.s-1","parameterCategory":1,"la1":30.2991,"la2":30.254,"lo1":-89.0895,"lo2":-89.0444,"dy":0.0017,"dx":0.0017,"nx":28,"ny":28,"refTime":"2025-06-04T21:00:00:Z","depth":0,"parameterNumber":2,"parameterNumberName":"U-component_of_WINDS"},"data":[0,0,0,0,0,0,0,0,0,0,0,0,0,0,0,0,0,0,0,0,0,0,0,0,0,0,0,0,0,0,0,0,0,0,0,0,0,0,0,0,0,0,0,0,0,0,0,0,0,0,0,0,0,0,0,0,0,0,-2.6448,-2.6448,0,-2.6497,-2.6498,-2.6498,-2.6478,-2.6477,-2.6476,-2.6475,-2.6526,-2.6529,-2.6531,0,0,0,0,0,0,0,0,0,0,0,0,0,-2.6337,-2.6339,-2.6448,-2.6448,-2.6449,-2.6497,-2.6498,-2.6498,-2.6478,-2.6477,-2.6475,-2.6474,-2.6525,-2.6528,-2.6531,0,0,0,0,0,0,0,0,0,0,0,0,0,-2.6386,-2.634,-2.6447,-2.6445,-2.6445,-2.6497,-2.6498,-2.6499,-2.6479,-2.6477,-2.6475,-2.6473,-2.6524,-2.6528,-2.6532,-2.659,0,0,-2.6543,-2.6545,0,0,0,0,0,0,0,0,-2.6383,-2.639,-2.6444,-2.6445,-2.6445,-2.648,-2.6478,-2.6529,-2.6479,-2.6466,-2.6475,-2.6473,-2.6512,-2.6517,-2.653,-2.6592,-2.6595,-2.6543,-2.6546,-2.6547,-2.6548,0,0,0,0,0,0,0,-2.638,-2.6387,-2.6467,-2.6445,-2.6446,-2.6441,-2.6446,-2.6487,-2.6498,-2.6467,-2.6465,-2.6472,-2.6512,-2.6527,-2.6531,-2.6595,-2.6543,-2.6547,-2.6549,-2.655,-2.6708,-2.671,0,0,0,0,0,0,-2.6376,-2.6385,-2.6466,-2.6469,-2.6409,-2.6445,-2.645,-2.647,-2.6498,-2.65,-2.6473,-2.647,-2.6521,-2.6527,-2.6533,-2.6603,-2.6547,-2.6551,-2.6553,-2.6707,-2.6709,-2.6711,0,0,0,0,0,0,-2.6374,-2.6383,-2.6464,-2.6426,-2.6436,-2.6448,-2.6471,-2.6472,-2.6487,-2.6502,-2.6504,-2.6486,-2.652,-2.6528,-2.6576,-2.6604,-2.6552,-2.6556,-2.6704,-2.6707,-2.671,-2.6743,0,0,0,0,0,0,-2.6371,-2.6383,-2.6404,-2.6427,-2.6438,-2.6505,-2.6473,-2.6474,-2.6493,-2.649,-2.6515,-2.6517,-2.6519,-2.6571,-2.658,-2.6608,-2.6559,-2.6702,-2.6706,-2.6709,-2.6739,-2.6747,-2.6753,0,0,0,0,0,-2.6367,-2.6412,-2.6406,-2.6415,-2.6466,-2.6507,-2.6514,-2.6515,-2.6495,-2.6517,-2.6528,-2.6516,-2.66,-2.6576,-2.6586,-2.6616,-2.67,-2.6704,-2.6709,-2.6736,-2.6745,-2.6753,0,0,0,0,0,0,-2.6392,-2.6415,-2.6408,-2.6462,-2.6483,-2.6504,-2.6532,-2.6524,-2.6551,-2.6547,-2.6548,-2.6553,-2.6603,-2.6615,-2.6587,-2.6674,-2.6647,-2.6654,-2.6665,-2.6673,-2.668,-2.6676,-2.6562,0,0,0,0,0,-2.6404,-2.6436,-2.6454,-2.6499,-2.651,-2.6519,-2.6537,-2.6536,-2.6558,-2.6567,-2.6581,-2.6603,-2.6634,-2.6654,-2.6684,-2.6741,-2.6747,-2.6767,-2.6774,-2.678,-2.6785,-2.6817,-2.6826,-2.6726,-2.6726,-2.6726,0,0,-2.6429,-2.6445,-2.6465,-2.6505,-2.6521,-2.6554,-2.6527,-2.6563,-2.6587,-2.6572,-2.6619,-2.663,-2.6654,-2.6708,-2.6732,-2.6719,-2.6814,-2.6785,-2.679,-2.6792,-2.6822,-2.6832,-2.684,-2.6729,-2.6728,-2.6728,0,0,-2.6491,-2.6507,-2.6546,-2.6563,-2.6588,-2.6594,-2.6603,-2.6626,-2.6632,-2.6679,-2.6669,-2.6698,-2.6752,-2.677,-2.6786,-2.6856,-2.6847,-2.6866,-2.6901,-2.6932,-2.694,-2.6947,-2.6972,-2.698,-2.6872,-2.6872,-2.6872,0,-2.6519,-2.6568,-2.6568,-2.6605,-2.6623,-2.6611,-2.6652,-2.6668,-2.6701,-2.6714,-2.6699,-2.6767,-2.6782,-2.684,-2.6857,-2.6871,-2.6882,-2.6863,-2.6938,-2.6946,-2.6952,-2.6976,-2.6985,-2.6874,-2.6874,-2.6873,-2.6873,0,-2.6601,-2.6635,-2.6664,-2.6696,-2.6718,-2.6756,-2.6763,-2.6785,-2.6782,-2.679,-2.6838,-2.6856,-2.689,-2.6903,-2.6901,-2.6961,-2.6952,-2.6938,-2.691,-2.6964,-2.6986,-2.6995,-2.6877,-2.6876,-2.6875,-2.6875,0,0,-2.6679,-2.6712,-2.6722,-2.6737,-2.6764,-2.679,-2.6829,-2.6861,-2.688,-2.6903,-2.6936,-2.6982,-2.6969,-2.6988,-2.6988,-2.7015,-2.7069,-2.6997,-2.6998,-2.701,-2.7136,-2.7146,-2.7156,-2.7064,-2.7065,-2.7067,-2.7134,0,-2.6743,-2.681,-2.6811,-2.6873,-2.6904,-2.6894,-2.6928,-2.6948,-2.6957,-2.6985,-2.6995,-2.7027,-2.7008,-2.7019,-2.7046,-2.7057,-2.7094,-2.7052,-2.7094,-2.7095,-2.7087,-2.7168,-2.7179,-2.7241,-2.7142,-2.7144,-2.7145,0,-2.6826,-2.6852,-2.6916,-2.6939,-2.6952,-2.6982,-2.7012,-2.7039,-2.7063,-2.7067,-2.7088,-2.7085,-2.7124,-2.7097,-2.7152,-2.7123,-2.714,-2.7149,-2.7151,-2.7154,-2.7123,-2.7173,-2.7261,-2.727,-2.7159,-2.7158,-2.7157,0,-2.6877,-2.6928,-2.6973,-2.6986,-2.7013,-2.7035,-2.7047,-2.7069,-2.7088,-2.7115,-2.7128,-2.7159,-2.7176,-2.72,-2.7205,-2.7185,-2.7261,-2.7233,-2.7266,-2.7266,-2.7281,-2.728,-2.7373,-2.7294,-2.7294,-2.7293,-2.7293,0,-2.6947,-2.6987,-2.6996,-2.7024,-2.7068,-2.707,-2.7114,-2.7125,-2.7145,-2.7175,-2.7169,-2.7197,-2.7202,-2.7232,-2.7237,-2.7282,-2.729,-2.7295,-2.7295,-2.7295,-2.7294,-2.7306,-2.7301,-2.7296,-2.7295,-2.7295,-2.7294,0,-2.7011,-2.7019,-2.7067,-2.7089,-2.7096,-2.7128,-2.7147,-2.7174,-2.7182,-2.722,-2.7229,-2.7242,-2.7277,-2.7285,-2.7326,-2.7329,-2.7383,-2.7379,-2.7375,-2.7374,-2.7406,-2.7403,-2.7509,-2.7523,-2.7435,-2.7436,-2.7436,0,-2.7055,-2.7086,-2.7111,-2.713,-2.7144,-2.7176,-2.7195,-2.7199,-2.722,-2.7249,-2.7273,-2.7307,-2.7334,-2.7391,-2.7404,-2.7436,-2.7433,-2.7468,-2.7438,-2.7437,-2.7434,-2.7432,-2.7435,-2.7474,-2.7475,-2.7476,-2.7476,0,-2.7133,-2.7136,-2.7164,-2.7194,-2.7218,-2.7242,-2.7265,-2.7282,-2.7289,-2.7313,-2.7348,-2.7369,-2.7412,-2.7446,-2.7478,-2.7492,-2.7486,-2.7486,-2.7495,-2.7495,-2.749,-2.7493,-2.739,-2.7483,-2.7482,-2.7482,-2.7482,-2.7481,-2.7188,-2.7215,-2.7237,-2.7269,-2.7287,-2.7308,-2.7335,-2.7346,-2.7375,-2.741,-2.7411,-2.7449,-2.7473,-2.7515,-2.7531,-2.7562,-2.7551,-2.7564,-2.7568,-2.7571,-2.7573,-2.7486,-2.7568,-2.7567,-2.7567,-2.7567,-2.7567,0,-2.7266,-2.728,-2.7309,-2.7341,-2.7367,-2.7358,-2.7383,-2.7405,-2.7439,-2.7461,-2.7489,-2.753,-2.7563,-2.7579,-2.7612,-2.7634,-2.7632,-2.7642,-2.7641,-2.7644,-2.7581,-2.757,-2.7644,-2.7644,-2.7644,-2.7643,-2.7643,-2.7643,-2.7309,-2.7353,-2.7358,-2.7412,-2.7425,-2.7463,-2.7478,-2.7498,-2.7516,-2.7561,-2.7589,-2.7599,-2.7619,-2.7654,-2.7684,-2.7688,-2.7701,-2.7713,-2.7715,-2.7656,-2.7648,-2.7641,-2.763,-2.7715,-2.7715,-2.7775,-2.7776,-2.7776]},{"header":{"parameterUnit":"m.s-1","parameterCategory":1,"la1":30.2991,"la2":30.254,"lo1":-89.0895,"lo2":-89.0444,"dy":0.0017,"dx":0.0017,"nx":28,"ny":28,"refTime":"2025-06-04T21:00:00:Z","depth":0,"parameterNumber":3,"parameterNumberName":"V-component_of_WINDS"},"data":[0,0,0,0,0,0,0,0,0,0,0,0,0,0,0,0,0,0,0,0,0,0,0,0,0,0,0,0,0,0,0,0,0,0,0,0,0,0,0,0,0,0,0,0,0,0,0,0,0,0,0,0,0,0,0,0,0,0,3.2867,3.2867,0,3.2879,3.2879,3.288,3.2882,3.2882,3.2882,3.2882,3.2893,3.2894,3.2894,0,0,0,0,0,0,0,0,0,0,0,0,0,3.2844,3.2844,3.2867,3.2867,3.2867,3.2879,3.2879,3.288,3.2882,3.2882,3.2882,3.2882,3.2893,3.2894,3.2894,0,0,0,0,0,0,0,0,0,0,0,0,0,3.2855,3.2844,3.2867,3.287,3.287,3.2879,3.2879,3.288,3.2882,3.2882,3.2882,3.2882,3.2893,3.2894,3.2894,3.2901,0,0,3.2896,3.2896,0,0,0,0,0,0,0,0,3.2854,3.2856,3.2869,3.287,3.287,3.2879,3.2876,3.2887,3.2882,3.2878,3.2882,3.2882,3.2889,3.289,3.2892,3.2901,3.2902,3.2896,3.2896,3.2897,3.2897,0,0,0,0,0,0,0,3.2853,3.2855,3.2872,3.2869,3.287,3.287,3.2872,3.2878,3.2884,3.2878,3.2878,3.288,3.2889,3.2892,3.2892,3.2902,3.2896,3.2897,3.2897,3.2897,3.2917,3.2917,0,0,0,0,0,0,3.2852,3.2854,3.2871,3.2872,3.2862,3.2871,3.2872,3.2876,3.2884,3.2885,3.288,3.288,3.2891,3.2892,3.2893,3.2901,3.2897,3.2897,3.2898,3.2917,3.2917,3.2917,0,0,0,0,0,0,3.2852,3.2854,3.2871,3.2863,3.2865,3.2871,3.2876,3.2877,3.2879,3.2885,3.2886,3.2882,3.2891,3.2892,3.2899,3.2901,3.2897,3.2898,3.2917,3.2917,3.2917,3.2917,0,0,0,0,0,0,3.2851,3.2854,3.2856,3.2863,3.2866,3.2877,3.2876,3.2877,3.2881,3.2881,3.2887,3.2888,3.2891,3.2898,3.2899,3.2902,3.2898,3.2916,3.2917,3.2917,3.2917,3.2917,3.2918,0,0,0,0,0,3.285,3.2855,3.2856,3.2858,3.2869,3.2877,3.2878,3.2882,3.2881,3.2883,3.2887,3.2888,3.2901,3.2899,3.29,3.2903,3.2916,3.2917,3.2917,3.2917,3.2917,3.2918,0,0,0,0,0,0,3.2847,3.2856,3.2857,3.2865,3.287,3.2877,3.288,3.2882,3.2887,3.2887,3.2891,3.2892,3.2899,3.2902,3.2899,3.291,3.2909,3.2909,3.2908,3.2908,3.2909,3.2908,3.2899,0,0,0,0,0,3.2847,3.2853,3.286,3.2866,3.2869,3.2874,3.2878,3.288,3.2885,3.2888,3.2892,3.2897,3.2902,3.2905,3.2911,3.2918,3.2919,3.292,3.2921,3.2921,3.2922,3.2926,3.2927,3.2919,3.2919,3.2919,0,0,3.2848,3.2853,3.2857,3.2866,3.287,3.2876,3.2876,3.2882,3.2886,3.2888,3.2895,3.2899,3.2904,3.2911,3.2915,3.2914,3.2924,3.2922,3.2922,3.2922,3.2926,3.2927,3.2928,3.2919,3.2919,3.2919,0,0,3.2851,3.2856,3.2862,3.2866,3.2874,3.2877,3.2879,3.2886,3.2888,3.2896,3.2898,3.2902,3.2911,3.2916,3.2919,3.2925,3.2926,3.2927,3.2929,3.2933,3.2934,3.2934,3.2937,3.2937,3.2928,3.2928,3.2928,0,3.285,3.286,3.2864,3.287,3.2874,3.2878,3.2883,3.2888,3.2896,3.2898,3.2898,3.291,3.2914,3.2922,3.2924,3.2926,3.2928,3.2926,3.2933,3.2934,3.2935,3.2937,3.2938,3.2928,3.2928,3.2928,3.2928,0,3.2859,3.2865,3.2869,3.2877,3.2882,3.2888,3.2893,3.2897,3.2899,3.2903,3.291,3.2916,3.2922,3.2924,3.2926,3.2933,3.2933,3.2933,3.2931,3.2935,3.2938,3.2938,3.2928,3.2928,3.2928,3.2928,0,0,3.2859,3.2872,3.2873,3.2877,3.2886,3.2891,3.2897,3.2904,3.2907,3.2913,3.2918,3.2926,3.2927,3.2931,3.2933,3.2937,3.2942,3.2936,3.2937,3.2937,3.295,3.2949,3.295,3.2943,3.2943,3.2943,3.2949,0,3.2864,3.2876,3.2881,3.289,3.2896,3.29,3.2905,3.2911,3.2915,3.292,3.2924,3.293,3.293,3.2932,3.2936,3.294,3.2944,3.294,3.2947,3.2947,3.2945,3.2952,3.2951,3.2957,3.295,3.295,3.295,0,3.2871,3.2877,3.2888,3.2896,3.2899,3.2904,3.2911,3.2916,3.2923,3.2926,3.293,3.2933,3.2939,3.2938,3.2947,3.2944,3.2947,3.295,3.295,3.2951,3.2949,3.2952,3.2959,3.296,3.2952,3.2952,3.2952,0,3.287,3.2882,3.289,3.2893,3.2904,3.2907,3.2911,3.2918,3.2922,3.2929,3.2931,3.2938,3.2942,3.2947,3.2951,3.295,3.296,3.2958,3.2962,3.2962,3.2963,3.2963,3.297,3.2966,3.2966,3.2966,3.2966,0,3.2875,3.2881,3.289,3.2895,3.2902,3.2907,3.2914,3.2919,3.2925,3.293,3.2934,3.2938,3.2944,3.295,3.2953,3.296,3.2961,3.2964,3.2964,3.2963,3.2963,3.2965,3.2965,3.2966,3.2966,3.2966,3.2966,0,3.2876,3.2882,3.2891,3.29,3.2903,3.2908,3.2915,3.292,3.2925,3.2931,3.2933,3.294,3.2947,3.2952,3.2961,3.2963,3.297,3.2971,3.2968,3.2969,3.2972,3.2971,3.298,3.2982,3.2976,3.2976,3.2976,0,3.2878,3.2883,3.2893,3.2898,3.2902,3.2909,3.2914,3.292,3.2924,3.2933,3.2936,3.2944,3.295,3.2961,3.2966,3.2973,3.2974,3.2977,3.2975,3.2973,3.2974,3.2973,3.2974,3.2977,3.2977,3.2977,3.2977,0,3.2881,3.2885,3.2892,3.29,3.2906,3.2912,3.2919,3.2922,3.2929,3.2934,3.2942,3.2947,3.2956,3.2963,3.2971,3.2975,3.2977,3.2977,3.2978,3.2977,3.2975,3.2976,3.2969,3.2977,3.2977,3.2977,3.2977,3.2977,3.2883,3.2888,3.2896,3.2904,3.291,3.2916,3.2921,3.2927,3.2934,3.2942,3.2945,3.2953,3.296,3.297,3.2975,3.2981,3.298,3.2982,3.2982,3.2983,3.2982,3.2975,3.2982,3.2982,3.2982,3.2982,3.2982,0,3.2887,3.2893,3.29,3.291,3.2916,3.2918,3.2926,3.2931,3.2938,3.2945,3.2951,3.296,3.2967,3.2973,3.2981,3.2984,3.2985,3.2986,3.2986,3.2987,3.2982,3.2981,3.2985,3.2985,3.2985,3.2985,3.2985,3.2985,3.289,3.2898,3.2902,3.2914,3.2919,3.2928,3.2932,3.2938,3.2943,3.2953,3.296,3.2964,3.2971,3.2979,3.2985,3.2987,3.2989,3.299,3.2992,3.2987,3.2987,3.2986,3.2985,3.299,3.299,3.2996,3.2996,3.2996]}]]